Location: Добрич
(43.6638°N, 27.9002°E)
Time: 00:26:43
(UTC+03:00)

ISS - Visible Passes

Search period start: 17 April 2026 00:00
Search period end: 27 April 2026 00:00
Orbit: 415 x 424 km, 51.6° (Epoch: 16 April)

Date Brightness Start Highest point End Pass type
(mag) Time Alt. Az. Time Alt. Az. Time Alt. Az.
17 Apr -1.6 05:38:13 10° S 05:40:52 22° SE 05:43:31 10° E visible
18 Apr -1.1 04:51:58 10° SSE 04:53:40 13° SE 04:55:22 10° E visible
19 Apr -3.3 05:39:21 10° SW 05:42:39 59° SE 05:46:00 10° ENE visible
20 Apr -2.6 04:53:39 21° SSW 04:55:19 35° SE 04:58:26 10° ENE visible
21 Apr -1.9 04:08:08 22° SE 04:08:08 22° SE 04:10:42 10° E visible
21 Apr -3.4 05:41:18 10° WSW 05:44:36 55° NNW 05:47:57 10° NE visible
22 Apr -3.8 04:55:29 28° WSW 04:57:09 85° NNW 05:00:32 10° ENE visible
23 Apr -3.5 04:09:49 59° SE 04:09:49 59° SE 04:13:03 10° ENE visible
24 Apr -1.4 03:24:05 21° E 03:24:05 21° E 03:25:28 10° ENE visible
24 Apr -2.7 04:57:02 18° W 04:59:09 39° NNW 05:02:21 10° NE visible
25 Apr -3.4 04:11:15 51° NW 04:11:36 55° NNW 04:14:56 10° NE visible
26 Apr -2.1 03:25:25 34° NE 03:25:25 34° NE 03:27:29 10° ENE visible
26 Apr -1.9 04:58:25 10° WNW 05:01:16 25° NNW 05:04:08 10° NE visible
